Погода в Богородском

Россия / Республика Татарстан     55°44′27″N   49°23′01″E
темп.,
°C
ветер,
м/с
пор.,
м/с
влажн.,
%
обл.,
%
осадки,
мм/ч
давл.,
гПа
погр.,
м
6 марта, сб
сб600:00−13зюз349622 0.0 100830
03:00−10юз499639 0.2 1010283
06:00−11з3796100 0.2 1011166
09:00−11ссз469499 0.3 1013363
12:00−10зсз458692 0.1 1014675
15:00−9з468796 0.1 1013697
18:00−14зюз349470 0.0 101438
21:00−14юз239767 0.1 101435
7 марта, вс
вс700:00−14зюз239793 0.1 101241
03:00−18зюз2210085 0.1 101220
06:00−18юз2210096 0.0 101120
09:00−15ююз239798 0.1 1011115
12:00−11ю359596 0.0 1009315
15:00−10ю579498 0.1 1006420
18:00−11ююв51296100 0.0 1004277
21:00−8ю71494100 0.5 1002675
8 марта, пн
пн800:00−7ю81494100 1.2 997745
03:00−6ю81495100 2.5 995773
06:00−11зюз5138867 0.8 995313
09:00−10юз5108842 0.8 997409
12:00−7ююз6118292 0.0 998669
15:00−6ю5108296 0.0 997601
18:00−8юв3487100 0.0 99471
21:00−8всв3596100 2.6 993221
9 марта, вт
вт900:00−9сз5993100 2.3 994284
03:00−8з61193100 2.6 997500
06:00−11з61193100 0.1 1000434
09:00−12зсз6992100 0.1 1004529
12:00−10з5789100 0.1 1007663
15:00−10з5789100 0.2 1008770
18:00−13з3696100 0.3 1010127
21:00−16зсз239697 0.3 101128
10 марта, ср
ср1000:00−17зсз339796 0.0 101243
03:00−16сз359798 0.1 1013122
06:00−18сз359798 0.1 101394
09:00−16сз469399 0.1 1015380
12:00−15ссз4588100 0.1 1016605
15:00−15ссз4688100 0.1 1017708
18:00−19ссз3596100 0.1 1018101
21:00−24ссз339578 0.1 102022